Left ArrowRight Arrow

39.36473, -99.84206

Hourly Observations for June 14, 2024

Temp ( °F °C ) Dew Point ( °F °C ) Humidity (%) Winds ( mph kmh ) Pressure ( in mb ) Visibility ( mi km ) Precip ( " mm )
5:53 am 05:53 Clear 68 20 57 13.9 68 68 NE 7 11 30.00 1016 10 16 0.00 0.00
6:53 am 06:53 Sunny 70 21.1 57 13.9 63 63 NE 9 15 30.01 1016 10 16 0.00 0.00
7:53 am 07:53 Sunny 74 23.3 57 13.9 56 56 ENE 13 20 30.01 1016 10 16 0.00 0.00
8:53 am 08:53 Sunny 75 23.9 57 13.9 54 54 ESE 13 20 30.03 1017 10 16 0.00 0.00
9:53 am 09:53 Sunny 78 25.6 59 15 52 52 ESE 12 19 30.04 1017 10 16 0.00 0.00
10:53 am 10:53 Sunny 80 26.7 60 15.6 51 51 SE 10 17 30.03 1017 10 16 0.00 0.00
11:53 am 11:53 Sunny 84 28.9 62 16.7 48 48 SE 13 20 29.98 1015 10 16 0.00 0.00
12:53 pm 12:53 Sunny 87 30.6 62 16.7 43 43 S 12 19 29.98 1015 10 16 0.00 0.00
1:53 pm 13:53 Sunny N/A N/A N/A SE 8 13 30.11 1020 10 16 0.00 0.00
2:53 pm 14:53 Sunny 91 32.8 63 17.2 39 39 E 8 13 29.92 1013 10 16 0.00 0.00
3:53 pm 15:53 Sunny 93 33.9 65 18.3 40 40 SE 14 22 29.90 1013 10 16 0.00 0.00
4:53 pm 16:53 Sunny 92 33.3 63 17.2 38 38 SE 12 19 29.89 1012 10 16 0.00 0.00
5:53 pm 17:53 Sunny 91 32.8 64 17.8 41 41 SSE 13 20 29.85 1011 10 16 0.00 0.00
6:53 pm 18:53 Sunny 90 32.2 64 17.8 42 42 SE 10 17 29.82 1010 10 16 0.00 0.00
7:53 pm 19:53 Sunny 89 31.7 68 20 50 50 SSE 10 17 29.83 1010 10 16 0.00 0.00
8:53 pm 20:53 Mostly Cloudy 86 30 70 21.1 59 59 SSE 6 9 29.84 1011 10 16 0.00 0.00
9:42 pm 21:42 Mostly Cloudy with Nearby Thunderstorms 73 22.8 64 17.8 73 73 W 25 41 29.88 1012 7 11 0.01 0.13
10:00 pm 22:00 Cloudy with Nearby Thunderstorms 68 20 65 18.3 90 90 W 21 33 29.91 1013 8 13 0.01 0.13
10:30 pm 22:30 Mostly Cloudy with Nearby Thunderstorms 69 20.6 65 18.3 87 87 WSW 13 20 29.91 1013 10 16 0.01 0.25
10:53 pm 22:53 Mostly Cloudy with Nearby Thunderstorms 69 20.6 65 18.3 87 87 SW 14 22 29.95 1014 10 16 0.01 0.25
11:01 pm 23:01 Cloudy with Strong Thunderstorms 68 20 65 18.3 90 90 SSW 9 15 29.94 1014 3 5 0.08 2.03
11:20 pm 23:20 Cloudy with Nearby Thunderstorms 69 20.6 66 18.9 90 90 W 7 11 29.91 1013 4 6 0.10 2.54
11:49 pm 23:49 Mostly Cloudy with Light Rain 68 20 66 19 94 94 N 6 9 29.86 1011 7 11 0.16 4.06
11:53 pm 23:53 Mostly Cloudy with Light Rain 68 20 67 19.4 96 96 NNE 6 9 29.86 1011 8 13 0.16 4.06

Powered by Vaisala Xweather